• Join FlightAware (Why Join?)
  • Login
  • US Flag 
01:25AM EDT


 

Airport Tracker/Info


-or-


 

Live Flight TrackerFlight Track Log ✈ FDX1347 ✈ 14-Feb-2014 ✈ KALB - KMEM

Flight Track Log - Related Links

Times and Time Zones

All times are in EST time to prevent confusion due to time zone crossing. See the FDX1347 flight status page for this flight to view local times or setup timezone preferences in your user account.

Time Position Orientation Groundspeed Altitude Reporting Facility
EST Latitude Longitude Course Direction KTS MPH feet Rate Location/Type
10:45PM 42.8048 -73.8259 290° West 229 264 3,300  Level FlightAware ADS-B (KALB)
10:46PM 42.8005 -73.9173 266° West 247 284 6,400 3,240 Climbing FlightAware ADS-B (KALB)
10:47PM 42.7888 -74.0073 260° West 247 284 9,900 2,700 Climbing FlightAware ADS-B (KALB)
10:48PM 42.7751 -74.1132 260° West 300 345 11,800 2,220 Climbing FlightAware ADS-B (KALB)
10:49PM 42.7637 -74.2339 263° West 332 382 14,400 2,940 Climbing FlightAware ADS-B (KALB)
10:50PM 42.7549 -74.3601 265° West 340 391 17,800 3,180 Climbing FlightAware ADS-B (KALB)
10:50PM 42.7512 -74.4224 265° West 345 397 19,200 2,580 Climbing FlightAware ADS-B (KALB)
10:53PM 42.6795 -74.7243 252° West 359 413 25,400 2,280 Climbing FlightAware ADS-B (KALB)
10:54PM 42.6196 -74.8374 234° Southwest 370 426 27,200 1,740 Climbing FlightAware ADS-B (KALB)
10:55PM 42.5555 -74.9572 234° Southwest 378 435 29,100 2,280 Climbing FlightAware ADS-B (KALB)
10:56PM 42.4958 -75.0690 234° Southwest 357 411 32,000 1,980 Climbing FlightAware ADS-B (KALB)
10:57PM 42.4361 -75.1815 234° Southwest 373 429 33,100 1,020 Climbing FlightAware ADS-B (KALB)
10:58PM 42.3752 -75.2987 235° Southwest 390 449 34,100 1,140 Climbing FlightAware ADS-B (KALB)
10:59PM 42.3136 -75.4178 235° Southwest 395 455 35,400 1,560 Climbing FlightAware ADS-B (KALB)
11:00PM 42.2517 -75.5359 235° Southwest 382 440 37,300 1,380 Climbing FlightAware ADS-B (KALB)
11:01PM 42.2124 -75.6116 235° Southwest 390 449 38,000 660 Climbing FlightAware ADS-B (KALB)
11:02PM 42.1371 -75.7543 235° Southwest 388 447 38,700 600 Climbing FlightAware ADS-B (KALB)
11:04PM 42.1177 -75.7916 235° Southwest 396 456 39,900 420 Climbing FlightAware ADS-B (KALB)
11:05PM 41.9508 -76.1428 238° Southwest 402 463 40,000  Climbing FlightAware ADS-B (KALB)
11:07PM 41.8078 -76.4499 238° Southwest 403 464 40,000  Level FlightAware ADS-B (KWWD)
11:08PM 41.7598 -76.5527 238° Southwest 403 464 40,000  Level FlightAware ADS-B (KWWD)
11:11PM 41.6006 -76.8896 238° Southwest 398 458 40,000  Level FlightAware ADS-B (KWWD)
11:11PM 41.5679 -76.9578 237° Southwest 396 456 40,000  Level FlightAware ADS-B (KWWD)
11:12PM 41.5276 -77.0424 238° Southwest 396 456 40,000  Level FlightAware ADS-B (KWWD)
11:13PM 41.4536 -77.1966 237° Southwest 396 456 40,000  Level FlightAware ADS-B (KWWD)
11:14PM 41.3870 -77.3359 238° Southwest 395 455 40,000  Level FlightAware ADS-B (KWWD)
11:16PM 41.3092 -77.4959 237° Southwest 394 453 40,000  Level FlightAware ADS-B (KWWD)
11:16PM 41.2714 -77.5740 237° Southwest 394 453 40,000  Level FlightAware ADS-B (KWWD)
11:17PM 41.2411 -77.6357 237° Southwest 394 453 40,000  Level FlightAware ADS-B (KWWD)
11:17PM 41.2088 -77.7034 238° Southwest 395 455 40,000  Level FlightAware ADS-B (KWWD)
11:18PM 41.1770 -77.7670 236° Southwest 395 455 40,000  Level FlightAware ADS-B (KWWD)
11:18PM 41.1462 -77.8306 237° Southwest 394 453 40,000  Level FlightAware ADS-B (KWWD)
11:19PM 41.1162 -77.8919 237° Southwest 394 453 40,000  Level FlightAware ADS-B (KWWD)
11:19PM 41.0798 -77.9653 237° Southwest 394 453 40,000  Level FlightAware ADS-B (KWWD)
11:20PM 41.0495 -78.0265 237° Southwest 394 453 40,000  Level FlightAware ADS-B (KWWD)
11:21PM 40.9758 -78.1753 237° Southwest 394 453 40,000  Level FlightAware ADS-B (KWWD)
11:22PM 40.9133 -78.3014 237° Southwest 394 453 40,000  Level FlightAware ADS-B (KWWD)
11:23PM 40.8656 -78.4022 237° Southwest 398 458 40,000  Level Cleveland Center
11:24PM 40.8006 -78.5292 236° Southwest 395 455 40,000  Level Cleveland Center
11:25PM 40.7386 -78.6517 236° Southwest 398 458 40,000  Level Cleveland Center
11:26PM 40.6767 -78.7744 236° Southwest 401 461 40,000  Level Cleveland Center
11:32PM 40.3030 -79.5029 236° Southwest 401 461 40,000  Level FlightAware ADS-B (WMSA / SZB)
11:33PM 40.2515 -79.6032 236° Southwest 401 461 40,000  Level FlightAware ADS-B (WMSA / SZB)
11:34PM 40.2113 -79.6793 235° Southwest 400 460 40,000  Level FlightAware ADS-B (WMSA / SZB)
11:35PM 40.0876 -79.9165 236° Southwest 399 459 40,000  Level FlightAware ADS-B (WMSA / SZB)
11:36PM 40.0614 -79.9650 236° Southwest 400 460 40,000  Level Indianapolis Center
11:37PM 39.9772 -80.1275 236° Southwest 399 459 40,000  Level Cleveland Center
11:38PM 39.9153 -80.2464 236° Southwest 397 457 40,000  Level Cleveland Center
11:39PM 39.8511 -80.3650 235° Southwest 398 458 40,000  Level Cleveland Center
11:40PM 39.7883 -80.4842 236° Southwest 399 459 40,000  Level Cleveland Center
11:41PM 39.7242 -80.6008 234° Southwest 396 456 40,000  Level Cleveland Center
11:42PM 39.6697 -80.7022 235° Southwest 400 460 40,000  Level Indianapolis Center
11:43PM 39.6069 -80.8197 235° Southwest 397 457 40,000  Level Indianapolis Center
11:44PM 39.5422 -80.9369 234° Southwest 400 460 40,000  Level Indianapolis Center
11:45PM 39.4775 -81.0556 235° Southwest 401 461 40,000  Level Indianapolis Center
11:51PM 39.1037 -81.7389 235° Southwest 414 476 40,000  Level FlightAware ADS-B (KPMH)
11:52PM 39.0438 -81.8468 234° Southwest 413 475 40,000  Level FlightAware ADS-B (KPMH)
11:53PM 38.9587 -81.9982 234° Southwest 414 476 40,000  Level FlightAware ADS-B (KPMH)
11:54PM 38.9124 -82.0819 235° Southwest 415 478 40,000  Level FlightAware ADS-B (KPMH)
11:55PM 38.8268 -82.2338 234° Southwest 416 479 40,000  Level FlightAware ADS-B (KPMH)
11:56PM 38.7657 -82.3418 234° Southwest 417 480 40,000  Level FlightAware ADS-B (KPMH)
11:56PM 38.7275 -82.4080 233° Southwest 418 481 40,000  Level FlightAware ADS-B (KPMH)
11:57PM 38.6800 -82.4919 234° Southwest 420 483 40,000  Level FlightAware ADS-B (KPMH)
11:58PM 38.7112 -82.4379 54° Northeast 421 484 40,000  Level FlightAware ADS-B (KPMH)
11:59PM 38.5182 -82.7758 234° Southwest 423 487 40,000  Level FlightAware ADS-B (KPMH)
12:00AM 38.4814 -82.8403 234° Southwest 424 488 40,000  Level FlightAware ADS-B (KPMH)
12:00AM 38.4429 -82.9068 234° Southwest 424 488 40,000  Level FlightAware ADS-B (KPMH)
12:01AM 38.4080 -82.9673 234° Southwest 425 489 40,000  Level FlightAware ADS-B (KPMH)
12:02AM 38.3652 -83.0419 234° Southwest 426 490 40,000  Level FlightAware ADS-B (KPMH)
12:02AM 38.3289 -83.1045 234° Southwest 426 490 40,000  Level FlightAware ADS-B (KPMH)
12:03AM 38.2704 -83.2053 234° Southwest 426 490 40,000  Level FlightAware ADS-B (KPMH)
12:03AM 38.2366 -83.2618 233° Southwest 426 490 40,000  Level FlightAware ADS-B (KPMH)
12:04AM 38.1881 -83.3464 234° Southwest 428 493 40,000  Level FlightAware ADS-B (KPMH)
12:05AM 38.1514 -83.4090 233° Southwest 428 493 40,000  Level FlightAware ADS-B (KPMH)
12:05AM 38.1039 -83.4897 233° Southwest 430 495 40,000  Level FlightAware ADS-B (KPMH)
12:11AM 37.7093 -84.1563 233° Southwest 432 497 40,000  Level FlightAware ADS-B (KBRY)
12:12AM 37.6347 -84.2792 233° Southwest 433 498 40,000  Level FlightAware ADS-B (KBRY)
12:13AM 37.5610 -84.4017 233° Southwest 432 497 40,000  Level FlightAware ADS-B (KBRY)
12:14AM 37.4881 -84.5237 233° Southwest 431 496 40,000  Level FlightAware ADS-B (KBRY)
12:15AM 37.4276 -84.6234 233° Southwest 430 495 40,000  Level FlightAware ADS-B (KBRY)
12:16AM 37.3681 -84.7208 232° Southwest 430 495 40,000  Level FlightAware ADS-B (KBRY)
12:17AM 37.2894 -84.8497 233° Southwest 429 494 40,000  Level FlightAware ADS-B (KEKX)
12:18AM 37.1978 -84.9996 233° Southwest 429 494 40,000  Level FlightAware ADS-B (KBRY)
12:19AM 37.1391 -85.0939 232° Southwest 428 493 40,000  Level FlightAware ADS-B (KEKX)
12:19AM 37.1013 -85.1549 232° Southwest 429 494 40,000  Level FlightAware ADS-B (KEKX)
12:20AM 37.0513 -85.2374 233° Southwest 429 494 40,000  Level FlightAware ADS-B (KBRY)
12:20AM 37.0119 -85.3004 232° Southwest 430 495 40,000  Level FlightAware ADS-B (KEKX)
12:21AM 36.9608 -85.3830 232° Southwest 430 495 40,000  Level FlightAware ADS-B (KEKX)
12:22AM 36.9125 -85.4613 232° Southwest 430 495 40,000  Level FlightAware ADS-B (KBRY)
12:22AM 36.8647 -85.5377 232° Southwest 431 496 40,000  Level FlightAware ADS-B (KEKX)
12:24AM 36.7587 -85.7065 232° Southwest 433 498 40,000  Level FlightAware ADS-B (KBRY)
12:25AM 36.6858 -85.8222 232° Southwest 433 498 40,000  Level FlightAware ADS-B (KBRY)
12:26AM 36.6132 -85.9381 232° Southwest 435 501 40,000  Level FlightAware ADS-B (KBRY)
12:27AM 36.5561 -86.0281 232° Southwest 434 499 40,000  Level Indianapolis Center
12:28AM 36.4797 -86.1458 231° Southwest 434 499 40,000  Level Indianapolis Center
12:29AM 36.4047 -86.2656 232° Southwest 433 498 40,000  Level Indianapolis Center
12:30AM 36.3289 -86.3842 232° Southwest 434 499 40,000  Level Indianapolis Center
12:31AM 36.2525 -86.5039 232° Southwest 435 501 40,000  Level Indianapolis Center
12:32AM 36.1750 -86.6244 231° Southwest 437 503 40,000  Level Indianapolis Center
12:33AM 36.1142 -86.7572 240° Southwest 439 505 40,000  Level Indianapolis Center
12:34AM 36.0708 -86.8967 249° West 428 493 40,000  Level Indianapolis Center
12:35AM 36.0339 -87.0119 248° West 427 491 40,000  Level Indianapolis Center
12:36AM 35.9889 -87.1506 248° West 428 493 40,000 -420 Level Indianapolis Center
12:37AM 35.9217 -87.3586 248° West 426 490 39,000 -780 Descending Memphis Center
12:38AM 35.8775 -87.4939 248° West 422 486 38,100 -840 Descending Memphis Center
12:39AM 35.8344 -87.6267 248° West 418 481 37,400 -960 Descending Memphis Center
12:40AM 35.7908 -87.7581 248° West 412 474 36,200 -1,320 Descending Memphis Center
12:41AM 35.7464 -87.8969 249° West 425 489 34,800 -2,220 Descending Memphis Center
12:42AM 35.7003 -88.0342 248° West 429 494 31,800 -2,580 Descending Memphis Center
12:43AM 35.6589 -88.1567 247° West 428 493 29,600 -2,340 Descending Memphis Center
12:44AM 35.6153 -88.2864 248° West 421 484 27,100 -2,760 Descending Memphis Center
12:45AM 35.5481 -88.4233 239° Southwest 406 467 24,100 -2,760 Descending Memphis Center
12:46AM 35.4681 -88.5233 226° Southwest 408 470 21,600 -2,340 Descending Memphis Center
12:47AM 35.3956 -88.6142 226° Southwest 396 456 19,400 -2,280 Descending Memphis Center
12:48AM 35.3233 -88.7039 225° Southwest 375 432 17,100 -2,220 Descending Memphis Center
12:49AM 35.2528 -88.7933 226° Southwest 366 421 15,000 -2,160 Descending Memphis Center
12:50AM 35.1831 -88.8792 225° Southwest 357 411 12,800 -2,100 Descending Memphis Center
12:51AM 35.1161 -88.9650 226° Southwest 347 399 10,800 -1,380 Descending Memphis Center
12:52AM 35.0522 -89.0447 226° Southwest 332 382 10,100 -780 Descending Memphis Center
12:53AM 35.0344 -89.1267 255° West 267 307 9,300 -960 Descending Memphis Center
12:54AM 35.0367 -89.2111 272° West 248 285 8,200 -900 Descending Memphis Center
12:55AM 35.0375 -89.2947 271° West 247 284 7,600 -840 Descending Memphis Center
12:56AM 35.0394 -89.3650 272° West 218 251 6,600 -1,020 Descending Memphis Center
12:57AM 35.0408 -89.4344 271° West 207 238 5,600 -1,080 Descending Memphis Center
12:58AM 35.0414 -89.5072 271° West 210 242 4,500 -900 Descending Memphis Center
12:59AM 35.0431 -89.5803 272° West 214 246 3,800 -840 Descending Memphis Center
01:00AM 35.0461 -89.6531 273° West 214 246 2,900 -480 Descending Memphis Center
01:01AM 35.0506 -89.7231 274° West 211 243 2,900  Level Memphis Center
01:02AM 35.0525 -89.7856 272° West 193 222 3,000 -300 Climbing Memphis Center
01:04AM 35.0547 -89.8381 273° West 166 191 2,300 -720 Descending Memphis Center
01:05AM 35.0561 -89.8789 272° West 137 158 1,600 -660 Descending Memphis Center
01:05AM 35.0500 -89.9000 251° West 112 129 1,200 -660 Descending KMEM
01:06AM 35.0667 -89.9500 292° West 126 145 500 -720 Descending KMEM
01:09AM 35.0333 -89.9667 270° West  Level FlightAware Approximate